Tallevast, FL

10:48 AM EDT on September 27, 2016 (GMT -0400)
Sarasota-bradenton

Weather History for KSRQ - February, 2012

Change the Weather History Date:

Saturday, February 11, 2012

  Actual Average Record
Temperature  
Mean Temperature 61 °F 63 °F  
Max Temperature 67 °F 73 °F 86 °F (1959)
Min Temperature 55 °F 53 °F 31 °F (1919)
Degree Days  
Heating Degree Days 4 4  
Month to date heating degree days 4 44  
Since 1 July heating degree days 164 364  
Cooling Degree Days 0 2  
Month to date cooling degree days 56 18  
Year to date cooling degree days 90 70  
Growing Degree Days 10 (Base 50)    
Moisture  
Dew Point 53 °F    
Average Humidity 73    
Maximum Humidity 93    
Minimum Humidity 51    
Precipitation  
Precipitation 0.01 in 0.07 in 0.98 in (1956)
Month to date precipitation 0.74 0.51  
Year to date precipitation 1.73 3.00  
Sea Level Pressure  
Sea Level Pressure 29.99 in    
Wind  
Wind Speed 13 mph (NNW)    
Max Wind Speed 25 mph    
Max Gust Speed 33 mph    
Visibility 10 miles    
Events Rain    
T = Trace of Precipitation, MM = Missing Value Source: NWS Daily Summary

Daily Weather History Graph

Daily Weather History Graph

Search for Another Location

Airport or City:

Trip Planner

Search our weather history database for the weather conditions in past years. The results will help you decide how hot, cold, wet, or windy it might be!

Date:

Astronomy

Feb. 11, 2012 Rise Set
Actual Time 7:10 AM EST 6:18 PM EST
Civil Twilight 6:46 AM EST 6:42 PM EST
Nautical Twilight 6:18 AM EST 7:10 PM EST
Astronomical Twilight 5:51 AM EST 7:37 PM EST
Moon 10:32 PM EST (2/11) 9:21 AM EST (2/11)
Length of Visible Light 11h 56m
Length of Day
11h 08m
Waning Gibbous, 82% of the Moon is Illuminated
Feb 11
Waning Gibbous
Feb 14
Last Quarter
Feb 21
New
Feb 29
First Quarter
Mar 8
Full

Hourly Weather History & Observations

Time (EST) Temp. Dew Point Humidity Pressure Visibility Wind Dir Wind Speed Gust Speed Precip Events Conditions
12:01 AM 64.4 °F 62.6 °F 94% 29.99 in 7.0 mi WNW 6.9 mph - 0.01 in Rain Light Rain
12:53 AM 64.9 °F 62.1 °F 90% 29.94 in 7.0 mi Calm Calm - 0.02 in Rain Light Rain
1:53 AM 64.0 °F 62.1 °F 93% 29.93 in 10.0 mi NW 8.1 mph - 0.00 in   Mostly Cloudy
1:56 AM 64.4 °F 62.6 °F 94% 29.93 in 10.0 mi NW 8.1 mph - N/A   Mostly Cloudy
2:29 AM 64.4 °F 62.6 °F 94% 29.93 in 10.0 mi NW 6.9 mph - 0.00 in Rain Light Rain
2:44 AM 64.4 °F 60.8 °F 88% 29.93 in 10.0 mi NW 8.1 mph - 0.00 in   Overcast
2:53 AM 64.0 °F 61.0 °F 90% 29.91 in 10.0 mi NNW 5.8 mph - 0.00 in   Overcast
3:26 AM 64.4 °F 60.8 °F 88% 29.91 in 10.0 mi NNW 11.5 mph - N/A   Overcast
3:39 AM 62.6 °F 60.8 °F 94% 29.91 in 10.0 mi NNW 11.5 mph - N/A   Overcast
3:53 AM 63.0 °F 57.9 °F 84% 29.90 in 10.0 mi North 5.8 mph - N/A   Overcast
4:10 AM 62.6 °F 57.2 °F 82% 29.90 in 10.0 mi North 4.6 mph - N/A   Overcast
4:53 AM 62.1 °F 57.0 °F 84% 29.91 in 10.0 mi Calm Calm - N/A   Mostly Cloudy
5:08 AM 62.6 °F 57.2 °F 82% 29.91 in 10.0 mi Calm Calm - N/A   Scattered Clouds
5:53 AM 60.1 °F 57.0 °F 90% 29.91 in 7.0 mi Calm Calm - N/A   Clear
6:48 AM 59.0 °F 57.2 °F 94% 29.95 in 9.0 mi NNW 3.5 mph - N/A   Mostly Cloudy
6:53 AM 60.1 °F 57.0 °F 90% 29.96 in 9.0 mi North 4.6 mph - N/A   Mostly Cloudy
7:53 AM 61.0 °F 57.0 °F 87% 29.99 in 10.0 mi NW 8.1 mph - N/A   Overcast
8:35 AM 62.6 °F 55.4 °F 77% 29.99 in 10.0 mi NNW 10.4 mph - N/A   Overcast
8:53 AM 62.1 °F 54.0 °F 75% 30.01 in 10.0 mi NNW 10.4 mph - N/A   Overcast
9:53 AM 64.0 °F 50.0 °F 60% 30.03 in 10.0 mi NNW 16.1 mph 23.0 mph N/A   Partly Cloudy
10:53 AM 66.0 °F 50.0 °F 56% 30.04 in 10.0 mi NNW 18.4 mph 23.0 mph N/A   Mostly Cloudy
11:53 AM 64.9 °F 50.0 °F 58% 30.03 in 10.0 mi North 13.8 mph 25.3 mph N/A   Mostly Cloudy
12:49 PM 64.4 °F 51.8 °F 64% 30.01 in 10.0 mi NNW 11.5 mph 23.0 mph N/A   Overcast
12:53 PM 64.0 °F 51.1 °F 63% 30.01 in 10.0 mi NNW 17.3 mph 24.2 mph N/A   Overcast
1:10 PM 64.4 °F 51.8 °F 64% 30.00 in 10.0 mi NW 17.3 mph 25.3 mph N/A   Overcast
1:33 PM 62.6 °F 51.8 °F 68% 30.01 in 10.0 mi NW 17.3 mph 28.8 mph N/A   Overcast
1:53 PM 62.1 °F 50.0 °F 65% 30.00 in 10.0 mi NNW 20.7 mph 32.2 mph N/A   Overcast
2:00 PM 62.6 °F 50.0 °F 63% 30.00 in 10.0 mi NNW 13.8 mph 31.1 mph N/A   Overcast
2:35 PM 60.8 °F 50.0 °F 68% 30.00 in 10.0 mi NW 16.1 mph 27.6 mph N/A   Overcast
2:53 PM 63.0 °F 50.0 °F 63% 29.99 in 10.0 mi NW 16.1 mph 26.5 mph N/A   Overcast
3:02 PM 64.4 °F 50.0 °F 59% 29.99 in 10.0 mi NNW 15.0 mph - N/A   Overcast
3:19 PM 64.4 °F 48.2 °F 56% 29.98 in 10.0 mi NW 19.6 mph 29.9 mph N/A   Scattered Clouds
3:53 PM 63.0 °F 48.0 °F 58% 29.99 in 10.0 mi NW 23.0 mph 32.2 mph N/A   Partly Cloudy
4:53 PM 61.0 °F 46.9 °F 60% 30.01 in 10.0 mi NW 19.6 mph 28.8 mph N/A   Overcast
5:53 PM 59.0 °F 45.0 °F 60% 30.03 in 10.0 mi NNW 16.1 mph 31.1 mph N/A   Mostly Cloudy
6:53 PM 57.0 °F 44.1 °F 62% 30.04 in 10.0 mi NW 18.4 mph 27.6 mph N/A   Clear
7:53 PM 57.0 °F 43.0 °F 59% 30.06 in 10.0 mi NNW 16.1 mph - N/A   Scattered Clouds
8:53 PM 57.0 °F 42.1 °F 57% 30.09 in 10.0 mi NNW 18.4 mph 25.3 mph N/A   Partly Cloudy
9:53 PM 57.0 °F 39.0 °F 51% 30.11 in 10.0 mi NNW 18.4 mph 25.3 mph N/A   Clear
10:53 PM 55.9 °F 39.0 °F 53% 30.14 in 10.0 mi North 11.5 mph 18.4 mph N/A   Partly Cloudy
11:53 PM 55.0 °F 36.0 °F 49% 30.15 in 10.0 mi North 16.1 mph 21.9 mph N/A   Clear